Regional Weather Roundup
Issued by NWS Little Rock, AR

Home | Current Version | Previous Version | Graphics & Text | Print | Product List | Glossary On
Versions: 1 2 3 4 5 6 7 8 9 10 11 12 13 14 15 16 17 18 19 20 21 22 23 24 25 26 27
000
ASUS44 KLZK 250005
RWRLZK

WEATHER ROUNDUP FOR ARKANSAS
NATIONAL WEATHER SERVICE LITTLE ROCK AR
700 PM CDT SUN JUL 24 2016

NOTE: "FAIR" INDICATES FEW OR NO CLOUDS BELOW 12,000 FEET WITH NO
SIGNIFICANT WEATHER AND/OR OBSTRUCTIONS TO VISIBILITY.

ARZ001-003-010-029-250100-
NORTHWEST ARKANSAS

CITY           SKY/WX    TMP DP  RH WIND       PRES   REMARKS
FAYETTEVILLE   MOSUNNY   86  78  77 S7        29.96S HX  98
6HR MIN TEMP:  86; 6HR MAX TEMP:  95;

FORT SMITH     SUNNY     93  76  57 E16       29.91R HX 105
6HR MIN TEMP:  93; 6HR MAX TEMP: 100;

HARRISON       CLOUDY    83  74  74 CALM      29.99R HX  89
6HR MIN TEMP:  83; 6HR MAX TEMP:  97;

BENTONVILLE    MOSUNNY   93  72  49 NE3       29.98S HX 100
6HR MIN TEMP:  91; 6HR MAX TEMP:  97;

ROGERS         SUNNY     92  76  59 E5        29.97S HX 104
6HR MIN TEMP:  91; 6HR MAX TEMP:  95;

SILOAM SPGS    MOSUNNY   91  72  52 SE6       29.97S HX  98
6HR MIN TEMP:  91; 6HR MAX TEMP:  97;

HIGHFILL       SUNNY     94  75  54 E6        29.96S HX 105
6HR MIN TEMP:  92; 6HR MAX TEMP:  98;

SPRINGDALE     MOSUNNY   93  73  52 E5        29.98S HX 102
$$

ARZ004-005-016-250100-
NORTH CENTRAL ARKANSAS

CITY           SKY/WX    TMP DP  RH WIND       PRES   REMARKS
BATESVILLE     MOSUNNY   82  75  78 SE3       29.94F HX  89
6HR MIN TEMP:  82; 6HR MAX TEMP:  97; 6HR PCP:  0.05;

FLIPPIN        CLOUDY    88  72  58 SW3       29.93S HX  94
6HR MIN TEMP:  86; 6HR MAX TEMP:  97;

MTN HOME       CLOUDY    85  78  80 CALM      29.95R HX  96
6HR MIN TEMP:  73; 6HR MAX TEMP:  94; 6HR PCP:  0.10;

$$

ARZ040-041-250100-
WEST CENTRAL ARKANSAS

CITY           SKY/WX    TMP DP  RH WIND       PRES   REMARKS
MENA           MOSUNNY   95  77  55 CALM      29.96R HX 109
MOUNT IDA      LGT RAIN  82  73  74 SE3       29.96R HX  87
6HR MIN TEMP:  82; 6HR MAX TEMP:  99; 6HR PCP: TRACE;

$$

ARZ009-017-025-026-028-250100-
NORTHEAST ARKANSAS

CITY           SKY/WX    TMP DP  RH WIND       PRES   REMARKS
CORNING          N/A     90  77  66 S7        29.95R HX 102
JONESBORO      MOSUNNY   78  75  90 CALM      29.93S
6HR MIN TEMP:  77; 6HR MAX TEMP:  94; 6HR PCP:  0.12;

NEWPORT        MOSUNNY   85  74  69 SE9       29.95S HX  92
6HR MIN TEMP:  85; 6HR MAX TEMP:  97;

WALNUT RIDGE   CLOUDY    88  75  66 S9        29.93R HX  97
6HR MIN TEMP:  88; 6HR MAX TEMP:  93;

BLYTHEVILLE    SUNNY     88  78  72 S5        29.95R HX 101
6HR MIN TEMP:  87; 6HR MAX TEMP:  92;

$$

ARZ022-023-033-042-044-250100-
CENTRAL ARKANSAS

CITY           SKY/WX    TMP DP  RH WIND       PRES   REMARKS
LITTLE ROCK    CLOUDY    91  77  63 S3        29.94R HX 104
6HR MIN TEMP:  91; 6HR MAX TEMP:  95;

JACKSONVILLE   CLOUDY    86  72  61 W6        29.94R HX  92
6HR MIN TEMP:  86; 6HR MAX TEMP:  93;

SEARCY         CLOUDY    88  79  74 SW3       29.96R HX 103
6HR MIN TEMP:  88; 6HR MAX TEMP:  94;

HOT SPRINGS    CLOUDY    83  67  58 NE25G32   29.98R THUNDER HX  85
6HR MIN TEMP:  83; 6HR MAX TEMP:  95;

RUSSELLVILLE   CLOUDY    83  69  62 SW5       29.94R HX  86
6HR MIN TEMP:  83; 6HR MAX TEMP:  97;

$$

ARZ036-250100-
EAST ARKANSAS

CITY           SKY/WX    TMP DP  RH WIND       PRES   REMARKS
WEST MEMPHIS   MOSUNNY   85  75  72 CALM      29.94S HX  93
6HR MIN TEMP:  82; 6HR MAX TEMP:  86;

$$

ARZ050-053-066-070-073-250100-
SOUTHWEST ARKANSAS

CITY           SKY/WX    TMP DP  RH WIND       PRES   REMARKS
CAMDEN         PTSUNNY   84  68  58 S5        29.94R HX  87
TEXARKANA      SUNNY     94  75  54 E5        29.92R HX 105
6HR MIN TEMP:  91; 6HR MAX TEMP:  97;

EL DORADO      PTSUNNY   82  71  69 SE10      29.96S HX  86
6HR MIN TEMP:  81; 6HR MAX TEMP:  99;

DE QUEEN       SUNNY     91  76  61 E5        29.89R HX 103
6HR MIN TEMP:  91; 6HR MAX TEMP:  99;

$$

ARZ056-057-069-250100-
SOUTHEAST ARKANSAS

CITY           SKY/WX    TMP DP  RH WIND       PRES   REMARKS
PINE BLUFF     PTSUNNY   88  77  69 SE6       29.94R HX 100
6HR MIN TEMP:  88; 6HR MAX TEMP:  95;

STUTTGART      CLOUDY    90  75  62 SE9       29.95R HX 100
6HR MIN TEMP:  88; 6HR MAX TEMP:  93;

MONTICELLO     CLOUDY    78  73  84 CALM      29.95S
6HR MIN TEMP:  75; 6HR MAX TEMP:  97; 6HR PCP:  0.75;


$$






USA.gov is the U.S. government's official web portal to all federal, state and local government web resources and services.